User: anonymous   Login
Location: Caltech
(34.1382°N, 118.1253°W)
Time: 13:39:34
(UTC-07:00)
Language:

Meteor 1-11 Rocket - Orbit

View from above orbital plane
View from above orbital plane
View from above satellite
View from above satellite

Ground track
Ground track

The orbit data is extracted from the following two-line orbital elements,

1 05918U 72022B   17268.42636051  .00000252  00000-0  14417-3 0  9996
2 05918  81.2370 228.8962 0059111  45.7119 314.8876 14.05828799332083
Epoch (UTC): 25 September 2017 10:13:57
Eccentricity: 0.0059111
inclination: 81.2370°
perigee height: 831 km
apogee height: 916 km
right ascension of ascending node: 228.8962°
argument of perigee: 45.7119°
revolutions per day: 14.05828799
mean anomaly at epoch: 314.8876°
orbit number at epoch: 33208

The dashed part of the orbit path shows where the satellite is in the earth's shadow,  

DLR